2022-155A (54251 NORAD) Tracking and Keplerian Element Data

This shows tracking and keplerian element data for the satellite.

Feedback or suggestion? Click here.




ElementValue
Catalog54251
Name2022-155A
Epoch Orbit76
Epoch Day325.29594464
Epoch Year2022
RAAN69.9829
Inclination97.5346
Eccentricity0.0012892
Argument of Perigee270.1493
Mean Anonmoly178.7392
Mean Motion15.09348644
Decay Rate0.000148
L11 54251U 22155A 22325.29594464 .00014800 00000+0 92832-3 0 9998
L22 54251 97.5346 69.9829 0012892 270.1493 178.7392 15.09348644 768



Live tracking and technical data element details for 2022-155A (NORAD 54251). 2022-155A can be tracked NOW for your location showing map with azimuth and elevation plus other details from your city location.







IsCatalogInMostPopularTable: catalog: 54251, numindb: 4
Update: records affected: 1



GetName: 54251 2022-155A

Hit Count: updated at: Sun, 04 Dec 2022 21:36:59 GMT